EN

Hourly Weather Probiinivka

Today, 16 May, Sunday

Time Temperature Precipitation Wind Pressure Humidity
00:00 +6°C° 0 mm 1 mps 661 mmHg 92%
01:00 +6°C° 0 mm 1 mps 661 mmHg 91%
02:00 +6°C° 0 mm 1 mps 661 mmHg 90%
03:00 +6°C° 0 mm 1 mps 661 mmHg 89%
04:00 +6°C° 0 mm 1 mps 661 mmHg 88%
05:00 +6°C° 0 mm 1 mps 660 mmHg 87%
06:00 +8°C° 0 mm 1 mps 661 mmHg 79%
07:00 +11°C° 0 mm 1 mps 661 mmHg 72%
08:00 +13°C° 0 mm 1 mps 662 mmHg 64%
09:00 +13°C° 0.3 mm 1 mps 662 mmHg 66%
10:00 +14°C° 0.3 mm 1 mps 662 mmHg 67%
11:00 +14°C° 0.3 mm 1 mps 662 mmHg 69%
12:00 +13°C° 0.6 mm 2 mps 661 mmHg 73%
13:00 +13°C° 0.6 mm 2 mps 661 mmHg 77%
14:00 +12°C° 0.6 mm 2 mps 661 mmHg 82%
15:00 +13°C° 0.4 mm 2 mps 661 mmHg 80%
16:00 +13°C° 0.4 mm 1 mps 661 mmHg 78%
17:00 +13°C° 0.4 mm 1 mps 661 mmHg 76%
18:00 +12°C° 0.5 mm 1 mps 660 mmHg 82%
19:00 +10°C° 0.5 mm 1 mps 660 mmHg 88%
20:00 +9°C° 0.5 mm 1 mps 660 mmHg 94%
21:00 +9°C° 0.2 mm 1 mps 660 mmHg 95%
22:00 +9°C° 0.2 mm 1 mps 660 mmHg 95%
23:00 +8°C° 0.2 mm 1 mps 661 mmHg 95%

Tomorrow, 17 May, Monday

Time Temperature Precipitation Wind Pressure Humidity
00:00 +8°C° 0 mm 1 mps 660 mmHg 96%
01:00 +7°C° 0 mm 1 mps 660 mmHg 96%
02:00 +7°C° 0 mm 1 mps 660 mmHg 96%
03:00 +6°C° 0 mm 1 mps 660 mmHg 96%
04:00 +6°C° 0 mm 1 mps 660 mmHg 96%
05:00 +5°C° 0 mm 1 mps 660 mmHg 95%
06:00 +6°C° 0 mm 0 mps 660 mmHg 90%
07:00 +8°C° 0 mm 0 mps 660 mmHg 84%
08:00 +10°C° 0 mm 0 mps 661 mmHg 78%
09:00 +12°C° 0 mm 1 mps 661 mmHg 70%
10:00 +14°C° 0 mm 1 mps 661 mmHg 61%
11:00 +16°C° 0 mm 1 mps 661 mmHg 53%
12:00 +16°C° 0 mm 1 mps 660 mmHg 53%
13:00 +16°C° 0 mm 2 mps 660 mmHg 53%
14:00 +16°C° 0 mm 2 mps 660 mmHg 53%
15:00 +16°C° 0 mm 2 mps 660 mmHg 55%
16:00 +16°C° 0 mm 2 mps 659 mmHg 56%
17:00 +15°C° 0 mm 2 mps 659 mmHg 58%
18:00 +13°C° 0.2 mm 2 mps 659 mmHg 68%
19:00 +11°C° 0.2 mm 1 mps 658 mmHg 78%
20:00 +10°C° 0.2 mm 1 mps 658 mmHg 89%
21:00 +9°C° 1 mm 1 mps 658 mmHg 91%
22:00 +9°C° 1 mm 1 mps 658 mmHg 93%
23:00 +9°C° 1 mm 1 mps 658 mmHg 96%

Day after tomorrow, 18 May, Tuesday

Time Temperature Precipitation Wind Pressure Humidity
00:00 +8°C° 0.2 mm 2 mps 657 mmHg 95%
01:00 +7°C° 0.2 mm 2 mps 657 mmHg 94%
02:00 +7°C° 0.2 mm 3 mps 657 mmHg 93%
03:00 +5°C° 0.1 mm 3 mps 657 mmHg 94%
04:00 +5°C° 0.1 mm 3 mps 657 mmHg 94%
05:00 +5°C° 0.1 mm 2 mps 657 mmHg 94%
06:00 +5°C° 0.1 mm 2 mps 658 mmHg 93%
07:00 +4°C° 0.1 mm 3 mps 658 mmHg 92%
08:00 +4°C° 0.1 mm 3 mps 659 mmHg 91%
09:00 +5°C° 0.2 mm 3 mps 659 mmHg 85%
10:00 +6°C° 0.2 mm 4 mps 660 mmHg 78%
11:00 +7°C° 0.2 mm 4 mps 660 mmHg 71%
12:00 +8°C° 0.1 mm 4 mps 661 mmHg 68%
13:00 +8°C° 0.1 mm 4 mps 661 mmHg 66%
14:00 +10°C° 0.1 mm 4 mps 661 mmHg 63%
15:00 +8°C° 0.1 mm 4 mps 661 mmHg 65%
16:00 +8°C° 0.1 mm 4 mps 661 mmHg 67%
17:00 +7°C° 0.1 mm 4 mps 661 mmHg 69%
18:00 +7°C° 0 mm 3 mps 661 mmHg 75%
19:00 +6°C° 0 mm 2 mps 661 mmHg 82%
20:00 +5°C° 0 mm 2 mps 661 mmHg 89%
21:00 +5°C° 0 mm 2 mps 661 mmHg 89%
22:00 +5°C° 0 mm 2 mps 661 mmHg 90%
23:00 +4°C° 0 mm 2 mps 662 mmHg 91%

19 May, Wednesday

Time Temperature Precipitation Wind Pressure Humidity
00:00 +4°C° 0 mm 2 mps 662 mmHg 92%
01:00 +4°C° 0 mm 2 mps 662 mmHg 94%
02:00 +5°C° 0 mm 1 mps 662 mmHg 95%
03:00 +4°C° 0 mm 1 mps 662 mmHg 95%
04:00 +4°C° 0 mm 1 mps 662 mmHg 95%
05:00 +4°C° 0 mm 1 mps 662 mmHg 95%
06:00 +6°C° 0 mm 1 mps 662 mmHg 86%
07:00 +8°C° 0 mm 1 mps 663 mmHg 78%
08:00 +10°C° 0 mm 1 mps 663 mmHg 69%
09:00 +10°C° 0.3 mm 1 mps 663 mmHg 66%
10:00 +11°C° 0.3 mm 1 mps 663 mmHg 64%
11:00 +12°C° 0.3 mm 1 mps 664 mmHg 61%
12:00 +12°C° 0.5 mm 1 mps 664 mmHg 64%
13:00 +11°C° 0.5 mm 1 mps 664 mmHg 67%
14:00 +11°C° 0.5 mm 1 mps 664 mmHg 70%
15:00 +11°C° 0.7 mm 1 mps 664 mmHg 75%
16:00 +10°C° 0.7 mm 1 mps 664 mmHg 79%
17:00 +10°C° 0.7 mm 1 mps 664 mmHg 84%
18:00 +9°C° 0.5 mm 1 mps 664 mmHg 88%
19:00 +8°C° 0.5 mm 1 mps 664 mmHg 92%
20:00 +7°C° 0.5 mm 1 mps 664 mmHg 96%
21:00 +7°C° 0.6 mm 1 mps 664 mmHg 96%
22:00 +6°C° 0.6 mm 1 mps 665 mmHg 96%
23:00 +6°C° 0.6 mm 1 mps 665 mmHg 96%

20 May, Thursday

Time Temperature Precipitation Wind Pressure Humidity
00:00 +6°C° 1.4 mm 1 mps 665 mmHg 96%
01:00 +6°C° 1.4 mm 1 mps 665 mmHg 97%
02:00 +5°C° 1.4 mm 1 mps 665 mmHg 97%
03:00 +5°C° 1.5 mm 1 mps 665 mmHg 97%
04:00 +5°C° 1.5 mm 1 mps 665 mmHg 98%
05:00 +5°C° 1.5 mm 1 mps 665 mmHg 98%
06:00 +5°C° 1.6 mm 1 mps 665 mmHg 97%
07:00 +5°C° 1.6 mm 1 mps 666 mmHg 97%
08:00 +5°C° 1.6 mm 1 mps 666 mmHg 97%
09:00 +5°C° 1.2 mm 1 mps 667 mmHg 95%
10:00 +5°C° 1.2 mm 1 mps 667 mmHg 94%
11:00 +6°C° 1.2 mm 1 mps 667 mmHg 93%
12:00 +6°C° 0.4 mm 0 mps 667 mmHg 88%
13:00 +7°C° 0.4 mm 0 mps 667 mmHg 83%
14:00 +8°C° 0.4 mm 0 mps 667 mmHg 78%
15:00 +9°C° 0.2 mm 0 mps 667 mmHg 75%
16:00 +9°C° 0.2 mm 0 mps 667 mmHg 72%
17:00 +9°C° 0.2 mm 0 mps 667 mmHg 68%
18:00 +8°C° 0.1 mm 0 mps 667 mmHg 75%
19:00 +6°C° 0.1 mm 0 mps 667 mmHg 82%
20:00 +5°C° 0.1 mm 0 mps 667 mmHg 88%
21:00 +5°C° 0 mm 1 mps 667 mmHg 90%
22:00 +5°C° 0 mm 1 mps 667 mmHg 92%
23:00 +4°C° 0 mm 1 mps 667 mmHg 94%

21 May, Friday

Time Temperature Precipitation Wind Pressure Humidity
00:00 +4°C° 0 mm 1 mps 667 mmHg 95%
01:00 +4°C° 0 mm 1 mps 667 mmHg 95%
02:00 +3°C° 0 mm 1 mps 667 mmHg 96%
03:00 +2°C° 0 mm 2 mps 667 mmHg 96%
04:00 +3°C° 0 mm 2 mps 667 mmHg 96%
05:00 +3°C° 0 mm 2 mps 667 mmHg 96%
06:00 +4°C° 0 mm 2 mps 667 mmHg 89%
07:00 +6°C° 0 mm 2 mps 667 mmHg 82%
08:00 +8°C° 0 mm 2 mps 667 mmHg 74%
09:00 +10°C° 0 mm 2 mps 667 mmHg 65%
10:00 +12°C° 0 mm 2 mps 668 mmHg 56%
11:00 +14°C° 0 mm 2 mps 668 mmHg 47%
12:00 +15°C° 0 mm 2 mps 668 mmHg 45%
13:00 +16°C° 0 mm 2 mps 668 mmHg 44%
14:00 +16°C° 0 mm 2 mps 668 mmHg 42%
15:00 +16°C° 0 mm 2 mps 667 mmHg 45%
16:00 +16°C° 0 mm 2 mps 667 mmHg 48%
17:00 +15°C° 0 mm 2 mps 667 mmHg 51%
18:00 +13°C° 0 mm 2 mps 666 mmHg 62%
19:00 +11°C° 0 mm 1 mps 666 mmHg 72%
20:00 +9°C° 0 mm 1 mps 665 mmHg 82%
21:00 +8°C° 0 mm 1 mps 665 mmHg 83%
22:00 +8°C° 0 mm 1 mps 665 mmHg 84%
23:00 +7°C° 0 mm 1 mps 665 mmHg 85%
Show more

We Need Your Consent

Meteoprog and our Service Providers may store and access personal data such as cookies, device identifiers or other similar technologies on your device and process such data to personalise content and ads, as well as provide social media features and to analyse the traffic.

  • Store and/or access information on your device

    Cookies, device identifiers or other information can be stored or accessed on your device for the purposes indicated above.

  • Personalised ads and content, ad and content measurement, audience insights, and products development

    Ads and content can be personalised based on a profile. More data can be added to better personalise ads and content. Ad and content performance can be measured. Insights about the audience who saw the ads and content can be derived. Such data can be used to develop or improve user’s experience, systems and software.

By clicking ‘I Agree’ you will allow the use of indicated cookies, device identifiers, web beacons or other similar technologies. Your settings can be changed in the browser on your device.

For certain purposes, legitimate interests may be relied on, rather than consent. You can read more about this in our Privacy and Cookie Policy.